Theta_e
349 350 350 350 349 349 350 350 349 348 348 348 349 349 349 349 350 351 352 353 352 350 349 348 347 347 348 348 349 349 349 349 342 336 338 340 341 341 340 339 338 339 340 341 341 340 340 339 339 339 339 339 338 339 340 342 343 344 346 347 346 347 348 348 347 347 347 347 347 347 347 345 345 346 345 345 345 345 344 344 345 345 344 343 343
349 349 349 349 349 350 350 350 350 349 349 350 351 351 349 349 349 349 351 352 351 349 349 348 348 348 348 348 349 349 349 349 347 342 337 337 338 339 339 339 338 338 338 339 339 340 341 340 339 339 340 341 342 343 344 346 347 348 348 348 347 347 348 348 347 347 347 347 347 347 346 345 345 345 345 344 345 345 344 343 344 344 344 343 343
348 348 349 349 348 349 350 350 350 350 350 351 351 350 348 348 348 349 350 350 349 349 348 348 348 348 347 347 348 349 349 349 350 348 342 337 337 338 339 339 339 339 339 340 341 342 343 343 343 343 344 345 345 345 347 347 346 347 348 347 347 347 347 347 346 346 346 347 346 346 345 344 344 344 344 343 343 343 343 343 343 343 343 343 343
349 348 349 349 349 350 350 350 350 351 352 351 350 348 347 348 347 348 348 347 347 348 348 348 348 348 347 347 347 348 349 349 350 349 347 343 338 335 337 339 340 340 341 341 342 342 342 342 342 343 343 343 344 344 345 346 346 347 346 346 347 347 346 346 346 347 347 346 345 345 345 343 343 343 343 343 342 342 342 342 342 342 342 343 343
352 351 350 349 350 351 351 351 351 352 353 353 351 348 348 348 348 349 349 348 349 349 348 347 347 347 346 345 345 346 346 348 350 348 347 347 342 337 335 335 336 336 338 339 339 340 340 340 339 339 339 339 339 340 340 341 343 345 344 345 347 346 345 345 346 346 345 344 342 342 342 340 341 341 341 341 341 341 340 340 341 342 342 342 343
354 353 351 350 351 351 351 351 352 353 354 354 352 350 350 349 349 350 350 349 349 348 347 345 345 345 344 344 344 345 344 347 349 347 346 347 347 345 340 337 337 335 334 334 334 335 335 335 335 335 335 335 335 336 336 336 338 339 339 341 342 341 341 341 341 341 340 339 338 339 338 338 338 337 337 338 338 338 338 338 339 341 343 342 342
352 352 351 352 352 352 353 352 353 354 354 354 352 350 350 350 350 351 350 350 349 348 347 346 345 344 344 344 344 344 344 345 346 346 346 346 348 349 346 344 346 343 340 340 336 334 335 334 334 334 334 335 335 335 336 336 337 337 338 339 339 339 339 339 338 338 337 337 337 337 337 337 337 335 336 336 336 336 337 337 338 340 342 343 343
351 352 352 353 354 354 355 355 355 355 354 354 353 352 351 350 351 350 350 350 349 349 349 347 345 345 345 346 347 348 346 345 345 345 346 347 348 349 349 348 350 349 347 348 345 340 338 337 336 335 336 336 335 335 335 335 335 337 337 338 338 338 338 338 337 336 335 335 335 336 337 337 337 337 337 337 337 338 339 340 340 341 343 344 345
350 351 353 355 356 355 355 356 355 355 355 355 354 354 353 352 351 350 350 350 350 351 350 348 347 347 349 349 349 350 349 348 347 347 347 348 348 348 349 349 349 350 349 349 349 345 342 343 342 338 337 338 337 334 333 333 332 332 333 333 334 333 333 333 333 333 333 334 334 336 337 337 339 339 340 340 341 341 342 343 343 343 344 345 346
351 350 353 356 356 355 355 355 355 355 354 353 354 355 354 353 352 350 350 349 350 350 349 348 348 348 349 350 350 350 351 351 349 349 348 349 349 349 349 349 349 349 349 350 351 350 348 348 349 346 342 345 345 340 335 335 335 334 332 330 329 329 330 330 330 331 332 334 335 337 338 339 340 341 342 343 343 344 344 344 344 345 344 345 346
352 350 353 355 355 353 353 354 355 355 353 350 352 354 354 354 353 352 352 350 349 351 350 349 349 349 349 350 351 351 351 351 349 349 349 349 349 349 350 349 348 349 350 350 351 352 350 349 351 352 349 348 351 348 342 341 342 339 337 334 331 329 329 330 331 332 334 336 337 339 340 341 342 343 343 344 344 344 344 344 344 344 344 344 345
352 351 352 354 354 352 351 352 353 355 354 352 352 352 354 355 355 355 354 352 351 351 351 351 350 349 349 351 351 351 351 350 348 349 351 350 349 349 349 349 348 348 350 350 351 351 350 349 351 352 351 350 352 353 350 349 348 344 339 337 335 333 333 334 334 335 337 338 339 340 341 342 343 343 343 343 343 343 344 344 344 344 344 345 345
352 352 352 353 353 351 350 351 352 354 354 354 353 354 355 355 355 356 355 353 352 353 352 352 351 350 351 351 350 349 350 350 349 350 350 349 348 347 348 348 348 348 349 350 350 350 350 350 352 352 351 349 351 354 353 353 353 349 342 338 336 336 337 337 338 338 340 340 341 341 342 342 342 342 343 344 345 347 348 349 349 349 349 349 349
352 352 353 353 352 351 350 350 352 355 355 355 356 356 356 356 356 356 354 352 352 352 352 352 351 350 349 350 350 349 349 348 349 350 350 348 346 346 348 347 347 347 348 348 347 349 350 350 352 352 348 346 349 353 352 352 354 351 346 344 342 340 341 342 342 341 340 341 341 341 341 341 343 345 348 350 352 353 354 354 354 354 354 354 354
352 353 353 352 351 351 351 351 353 356 356 356 356 357 357 356 356 355 353 352 351 351 350 351 352 350 349 354 354 353 353 349 348 349 348 347 345 344 345 346 346 345 344 345 344 346 349 349 350 348 343 342 347 349 350 350 352 352 351 351 352 352 353 351 349 345 341 340 340 340 342 345 348 351 353 355 355 356 357 357 357 357 357 357 356
351 352 351 351 350 351 351 352 354 355 354 352 354 357 357 355 355 354 353 353 352 350 349 350 350 350 354 358 357 358 361 353 347 347 346 347 344 342 344 346 345 343 343 344 345 345 347 349 348 342 337 339 345 347 350 352 353 353 352 353 357 357 352 349 346 343 340 340 341 344 348 351 354 355 356 357 357 357 358 358 357 358 357 355 352
351 350 349 350 350 351 350 351 352 353 352 349 352 356 356 354 355 355 353 353 352 349 349 349 349 349 353 357 359 363 365 355 347 345 342 344 343 341 343 345 344 342 342 344 346 346 346 346 344 338 337 343 347 348 350 353 353 352 353 357 357 352 346 344 344 343 344 345 348 351 353 354 356 357 357 357 358 357 357 357 357 356 353 348 344
353 351 350 351 351 350 350 349 350 351 352 349 350 355 357 356 356 356 354 354 352 349 349 349 349 348 349 352 353 356 358 353 352 353 345 341 342 341 342 341 341 342 343 344 345 344 343 344 342 341 343 347 349 350 350 351 351 351 354 356 352 348 348 349 348 348 350 351 352 354 355 356 357 357 357 357 357 357 356 356 354 350 346 340 336
356 354 353 351 351 350 350 351 352 352 352 351 351 353 356 356 356 357 356 353 351 350 349 348 348 348 349 349 345 347 348 348 356 362 355 346 340 338 341 341 338 343 345 345 344 340 341 343 343 344 347 349 351 350 349 351 351 349 347 347 347 350 353 352 351 351 351 353 354 355 356 357 357 356 356 356 355 354 353 351 348 343 339 335 332
357 357 354 351 350 353 354 354 355 354 355 355 354 355 356 356 356 357 355 353 352 353 350 348 349 350 349 346 344 345 346 344 348 355 359 363 355 342 340 339 338 342 344 344 342 340 341 344 343 345 348 349 350 350 352 353 351 346 342 342 346 351 353 353 352 351 352 354 355 356 357 357 357 356 354 352 350 349 348 346 343 338 333 330 327
356 357 355 351 350 355 357 356 356 356 357 358 356 357 357 356 357 357 354 352 352 353 350 349 352 352 349 347 346 346 345 344 344 345 353 366 365 352 341 337 338 342 342 341 342 341 342 341 341 344 349 350 350 351 354 352 349 348 345 344 348 351 352 353 352 352 353 355 356 356 357 357 357 354 349 346 345 345 344 342 337 332 326 324 321
357 357 357 354 352 355 358 357 357 356 356 358 356 356 356 356 358 355 353 353 352 352 351 352 355 352 348 347 348 347 346 345 344 345 347 350 355 353 345 341 343 343 341 340 341 340 340 339 341 345 348 350 351 353 354 351 353 355 348 346 353 355 354 352 353 354 354 355 356 357 357 356 354 349 344 343 343 343 341 336 330 325 321 320 318
357 358 358 355 352 355 358 357 357 357 357 358 357 356 357 358 357 354 353 355 353 354 354 353 353 352 349 346 345 347 348 347 344 345 345 345 352 354 348 344 344 342 342 342 340 338 339 341 344 348 350 352 353 353 351 349 356 357 348 348 356 359 357 352 353 355 355 356 356 355 355 354 349 344 343 344 342 339 334 329 324 320 320 318 318
357 358 358 356 352 352 356 355 357 357 357 357 357 358 359 357 357 356 356 356 354 354 356 353 351 351 350 348 347 347 346 346 344 343 343 344 347 348 347 348 346 342 341 342 341 339 340 344 348 350 352 351 352 354 349 349 357 355 347 350 356 360 359 352 352 355 355 353 353 354 351 347 343 342 343 342 339 333 327 324 321 319 319 319 319
358 358 358 358 355 354 356 356 356 355 356 358 358 358 358 357 357 357 357 357 356 355 356 354 353 353 352 351 351 350 347 346 343 342 341 342 344 344 347 350 350 346 341 339 340 341 342 346 348 350 349 345 348 353 350 352 359 353 347 351 356 360 360 352 351 354 353 350 351 351 345 340 340 341 341 339 334 328 324 322 320 319 320 320 319
357 357 357 359 357 356 357 357 355 354 356 359 358 358 357 357 358 357 356 357 356 355 355 355 355 354 353 353 353 351 350 349 347 344 341 342 345 346 346 349 352 351 344 339 338 341 347 349 348 349 348 345 347 349 348 351 356 353 349 351 355 360 359 353 351 354 352 350 350 349 342 338 339 339 338 335 330 326 323 321 319 320 321 319 319
357 356 356 358 358 357 357 358 357 355 357 359 360 360 358 358 358 358 359 358 357 357 355 354 356 355 354 354 354 351 350 351 351 349 346 346 347 346 346 353 360 360 353 348 340 338 345 349 348 348 348 348 346 345 347 351 355 355 352 351 353 358 360 354 352 356 354 351 350 349 345 341 338 337 336 333 328 326 323 320 320 321 320 319 318
359 358 357 357 357 357 358 359 359 358 358 358 360 361 359 360 360 358 359 359 358 359 357 355 357 356 355 353 352 351 350 350 351 351 351 349 348 348 348 352 362 369 369 366 357 345 346 350 349 349 350 350 349 350 352 354 356 357 355 353 353 356 359 357 354 356 357 354 352 350 348 345 341 338 335 332 328 325 323 321 321 321 320 318 317
358 358 357 357 357 357 357 359 360 360 360 358 360 363 359 358 358 358 359 360 358 359 359 358 359 358 356 354 352 350 349 349 350 350 351 352 350 350 350 349 354 366 373 377 371 355 349 352 352 352 352 350 352 355 357 357 357 357 357 355 353 354 358 358 357 358 357 356 355 351 349 347 345 341 338 334 331 327 323 321 321 322 320 319 317
357 356 357 356 356 356 356 358 361 361 360 358 359 363 359 356 356 358 360 361 359 360 360 359 359 359 357 355 354 351 349 349 348 348 348 351 351 349 351 348 348 355 361 368 372 360 351 353 352 352 355 353 353 355 356 357 358 357 356 355 354 355 357 358 359 359 358 357 356 354 350 348 347 345 342 338 335 330 325 322 322 322 320 319 318
355 354 355 355 356 357 356 357 359 359 360 359 358 360 362 360 359 360 360 360 360 361 361 359 359 359 359 357 355 353 352 351 350 351 350 351 352 349 350 350 350 352 353 358 364 359 352 355 353 349 352 352 350 352 353 356 355 355 355 355 356 356 357 359 360 360 360 358 357 356 352 349 348 347 346 343 339 334 329 325 322 322 321 319 318
353 352 353 354 355 356 356 357 358 357 358 359 359 359 361 362 361 362 361 360 361 361 362 362 360 359 359 357 355 354 353 352 351 352 353 353 353 350 349 351 351 353 352 353 358 356 351 354 356 352 349 350 349 351 353 352 352 354 356 357 357 356 356 359 359 360 360 359 358 357 354 350 348 348 348 346 344 340 335 330 324 321 321 320 318
353 351 352 353 353 354 355 356 357 357 356 357 358 358 358 359 359 361 362 361 359 358 359 362 361 360 359 357 356 355 355 354 352 352 352 353 354 353 350 350 351 351 350 350 355 355 350 350 353 352 351 352 352 351 350 350 353 355 356 357 357 355 356 358 359 360 360 360 358 358 355 352 350 349 348 347 346 344 340 336 330 323 321 321 319
352 351 352 353 353 353 354 354 355 355 355 355 356 357 357 356 356 358 360 361 360 358 357 359 360 360 360 358 358 358 357 356 354 353 352 352 354 354 352 351 352 352 352 352 353 355 353 350 349 347 349 354 355 354 354 355 356 356 356 356 355 356 358 359 359 361 361 360 359 358 356 353 352 351 350 349 347 346 343 341 337 329 323 321 320
352 350 351 352 352 352 352 353 353 354 355 354 354 355 356 356 355 355 356 357 359 359 359 359 359 359 358 358 358 359 360 359 357 355 353 352 353 354 354 353 352 351 351 351 352 353 355 354 351 348 349 353 354 356 356 354 354 354 355 356 356 357 359 357 357 359 360 359 359 359 357 354 353 353 352 350 349 347 345 344 343 336 327 322 320
350 350 350 350 350 351 351 353 353 353 353 354 353 353 354 355 355 353 353 354 356 357 356 358 359 358 358 357 358 359 360 360 360 358 356 354 352 353 354 354 353 352 351 350 351 353 354 354 352 352 354 355 353 355 356 353 351 351 353 356 358 359 358 358 359 359 359 359 359 359 357 355 355 354 353 352 350 349 347 346 344 340 333 325 321
350 349 350 350 349 348 350 351 352 352 351 351 352 352 352 353 354 353 353 353 355 356 354 353 354 356 357 357 356 357 358 359 359 359 358 357 354 353 353 352 352 352 352 351 351 351 353 353 353 354 355 355 355 357 359 358 355 354 356 359 359 358 357 358 360 360 359 360 360 359 358 356 355 355 354 353 351 350 349 348 345 342 338 332 323
350 350 349 349 349 348 348 350 351 351 350 349 350 350 350 351 352 353 353 352 353 354 354 354 352 353 355 356 355 356 356 356 357 357 357 356 355 355 354 353 352 352 352 352 351 350 351 352 353 354 355 355 357 358 358 358 358 359 360 360 359 358 356 356 359 360 360 361 360 360 360 358 355 354 355 354 352 350 349 349 347 342 341 338 328
349 350 349 348 349 349 349 349 350 350 350 349 348 349 349 349 350 352 354 353 352 351 352 353 354 354 354 354 354 354 354 354 355 356 356 355 355 355 355 355 353 352 352 352 352 352 352 352 352 353 354 355 357 357 357 359 361 361 360 361 360 358 355 356 359 361 361 362 362 361 360 359 356 355 355 354 353 351 349 350 349 343 342 343 335
350 349 349 348 348 349 349 350 350 350 349 349 349 348 348 349 349 351 352 353 352 351 350 351 351 353 353 353 353 353 353 353 353 353 354 354 355 354 354 355 354 353 353 352 353 353 354 356 356 356 357 357 358 359 360 362 361 359 357 356 357 355 352 354 359 362 363 362 361 360 359 359 357 356 356 355 353 353 350 349 350 346 343 344 340
351 349 348 348 347 348 348 349 350 350 349 349 349 348 349 349 350 351 351 352 351 351 351 351 350 350 350 351 351 351 351 350 350 350 349 350 352 353 352 354 354 354 353 353 353 353 353 356 357 358 360 360 360 361 360 360 358 355 353 352 355 356 354 355 359 361 361 359 359 360 359 359 359 358 356 356 355 354 352 350 351 349 344 343 344
351 350 349 347 347 347 349 349 349 350 350 349 348 348 348 348 349 351 352 352 351 350 350 351 351 351 349 349 349 349 349 349 349 349 348 348 349 349 349 351 353 354 354 353 354 354 353 354 355 356 358 359 358 358 357 356 354 353 354 355 356 358 359 360 360 359 358 358 359 358 357 357 358 357 356 356 357 356 354 353 352 351 346 343 345
351 350 348 348 347 346 347 348 348 349 350 349 349 348 348 349 349 350 351 351 351 350 350 350 349 349 349 349 349 349 348 348 347 347 348 348 348 348 348 349 350 352 353 354 355 355 355 356 356 356 357 357 356 356 356 354 353 353 355 355 354 354 356 358 360 358 356 355 354 353 352 353 356 357 357 357 358 357 357 357 355 352 348 344 345
353 351 348 348 348 347 347 348 348 349 349 349 349 348 348 348 349 350 350 349 349 349 349 349 348 348 348 348 348 348 348 347 346 345 345 345 345 346 347 348 349 349 351 351 352 354 355 357 358 358 358 358 358 357 357 356 355 355 355 354 352 351 350 352 355 354 348 345 348 351 350 351 354 358 358 357 356 356 357 359 357 354 350 345 344
355 354 351 348 347 348 349 349 348 348 348 349 348 348 348 349 349 350 350 349 349 348 346 346 347 347 347 347 347 346 346 346 345 343 343 342 342 343 345 347 348 349 349 349 349 350 351 354 357 358 357 357 358 357 355 355 356 356 356 355 353 351 350 349 349 347 342 342 350 355 355 355 357 359 359 356 355 356 356 357 358 356 352 346 344
355 355 354 350 346 346 348 351 351 349 347 348 348 348 348 349 350 350 350 350 350 349 346 344 344 344 344 344 345 344 343 343 343 341 340 340 340 341 343 346 348 348 348 349 348 349 349 351 353 354 353 354 356 354 353 354 355 356 355 355 354 352 351 350 348 345 343 345 352 358 359 357 354 356 357 354 354 356 355 356 358 357 354 347 344
355 355 354 353 350 347 347 350 353 353 350 348 348 348 348 348 349 350 350 350 350 350 348 346 344 342 342 341 342 341 341 340 340 340 340 340 340 340 342 343 345 346 347 347 347 347 348 348 349 349 348 349 351 351 351 353 355 356 356 356 356 355 352 352 351 349 347 348 351 358 360 354 348 351 353 351 352 354 354 356 357 357 354 348 344
354 355 355 354 353 352 351 351 352 354 354 351 350 351 350 350 349 349 349 350 350 350 349 348 346 344 343 343 342 341 341 341 341 341 342 342 343 343 344 344 344 345 345 346 346 345 346 346 346 347 347 347 348 348 348 349 351 352 354 355 356 355 354 354 353 352 351 350 351 355 357 353 348 350 352 351 354 355 355 356 357 355 352 348 344
354 354 355 354 354 354 352 352 352 354 355 354 354 354 354 354 353 350 349 348 348 350 349 348 348 346 345 344 344 344 344 344 345 345 346 347 347 347 347 347 347 349 347 347 346 346 346 347 347 348 350 350 350 349 349 348 347 347 351 354 354 353 355 356 356 355 355 353 353 355 356 356 352 349 350 353 355 356 357 356 355 353 350 345 343
355 355 354 354 354 355 354 354 354 354 355 356 355 355 354 354 355 354 352 347 346 348 349 349 348 347 346 346 344 344 344 343 344 345 347 349 351 351 351 351 351 353 352 351 351 351 350 351 352 353 354 355 354 354 353 352 349 346 348 350 350 351 354 356 357 358 357 357 356 355 355 355 350 346 348 353 354 354 355 355 353 350 347 343 341
354 354 354 354 354 355 355 355 355 355 356 356 356 356 355 353 354 356 356 353 348 346 347 348 349 349 348 347 346 345 346 346 346 347 348 349 350 351 353 354 355 355 355 354 355 356 357 357 357 357 357 357 357 356 355 354 353 350 348 346 345 347 350 351 352 354 355 353 351 351 350 349 346 344 346 352 355 354 353 353 351 347 345 343 341
Wind_Speed
15 15 13 14 14 13 12 12 12 12 11 10 7 6 6 7 7 6 6 6 7 7 8 9 11 12 14 15 15 13 8 5 7 8 8 8 8 8 8 7 7 6 6 5 4 4 3 3 3 3 3 3 2 2 2 1 0 1 1 1 2 2 3 4 4 4 4 5 6 6 7 8 7 6 6 6 6 6 6 6 6 6 6 6 6
14 13 13 14 14 13 13 13 12 12 11 10 8 7 8 7 6 6 7 8 9 10 11 12 12 12 13 14 13 11 8 6 6 6 6 7 6 7 7 6 6 5 5 5 4 4 3 2 3 3 3 3 2 2 2 1 2 3 3 3 3 4 5 5 6 6 6 6 7 7 8 8 7 7 7 6 6 6 6 7 6 6 6 6 6
12 12 12 13 14 14 14 13 12 12 11 11 10 8 8 8 8 9 9 9 10 11 13 13 12 13 13 12 11 10 8 6 5 5 5 5 5 6 6 6 5 5 5 4 4 3 3 3 4 4 3 4 4 3 4 3 4 4 4 5 5 5 6 7 7 6 6 7 7 8 9 9 8 7 7 7 7 7 7 7 7 7 6 7 7
11 10 10 11 12 12 12 13 13 13 11 10 9 8 8 9 9 10 9 9 9 10 12 13 12 13 12 10 10 10 9 7 6 5 4 4 4 4 5 5 5 4 4 4 4 4 4 4 4 4 4 4 4 4 5 5 5 5 6 6 6 7 7 7 7 7 8 8 8 9 9 8 8 8 7 7 7 7 8 7 7 7 7 7 8
14 12 13 13 11 12 13 14 14 13 11 10 9 9 8 8 9 9 8 8 7 7 10 12 12 13 11 9 10 11 9 9 9 6 4 4 4 4 3 4 4 4 4 4 4 4 4 4 4 4 4 4 4 5 5 6 6 6 7 7 7 7 7 7 8 8 8 8 8 8 8 7 7 7 7 7 7 8 8 8 8 8 8 8 8
17 16 16 16 14 14 15 14 14 14 12 11 9 9 8 8 8 7 7 6 5 8 11 10 11 12 11 9 10 9 9 11 13 8 4 4 4 4 4 4 3 3 3 3 3 3 3 3 3 3 3 4 4 4 5 4 4 5 5 5 6 6 7 7 7 7 7 7 7 7 7 7 7 7 7 7 7 8 8 8 8 9 9 9 9
18 17 16 16 15 14 14 14 15 14 13 12 10 9 8 7 7 7 6 6 6 9 11 9 8 10 10 9 8 7 7 11 13 9 5 4 2 3 3 3 2 3 3 3 3 2 2 2 2 2 3 3 4 4 4 4 3 4 4 4 5 5 5 6 6 6 6 6 6 6 6 6 7 7 7 7 8 8 8 9 9 10 10 10 10
18 18 17 15 14 14 15 15 15 14 13 13 11 9 8 7 7 7 7 6 7 7 8 9 8 8 8 7 7 7 6 8 12 11 6 3 3 3 2 2 2 1 2 3 3 4 4 3 3 2 1 1 2 2 2 3 3 3 4 4 4 4 5 5 5 5 5 5 5 5 6 6 7 7 7 8 8 8 9 10 10 11 11 11 11
18 18 16 15 14 15 16 15 15 14 13 12 11 9 8 8 8 8 7 5 5 4 7 11 9 7 8 7 7 7 6 7 10 10 7 5 7 6 4 4 3 3 4 4 4 4 4 4 4 4 4 3 2 1 1 1 2 2 3 3 4 4 4 5 5 5 5 5 5 6 6 6 7 7 8 8 9 9 10 10 11 11 12 12 12
16 17 16 15 14 15 16 15 15 14 13 13 13 10 8 8 8 8 7 5 5 5 7 10 8 8 10 8 6 7 7 6 8 8 7 8 10 9 7 6 4 5 5 5 5 4 2 2 2 3 3 3 4 4 3 3 3 3 3 3 4 4 4 4 4 5 5 5 6 6 7 7 8 8 9 10 10 11 12 12 13 13 14 14 13
15 17 17 16 14 15 16 15 15 14 13 13 13 12 10 8 8 8 6 5 5 5 6 6 4 8 11 7 5 7 7 7 8 9 9 11 11 11 11 9 4 5 7 6 6 5 2 1 1 1 2 3 3 4 4 4 5 5 5 5 5 4 4 5 4 5 5 6 6 7 7 8 9 10 11 12 13 14 14 15 15 15 16 15 15
15 17 17 17 14 14 16 16 15 14 12 13 12 13 11 9 7 6 6 6 6 6 7 5 4 8 10 6 5 7 7 8 10 12 12 13 11 11 14 12 7 6 8 8 8 5 3 2 2 1 1 3 4 4 5 5 5 6 6 6 6 5 5 5 5 5 6 6 7 8 9 10 11 13 14 15 15 16 16 16 15 15 15 15 15
16 16 16 16 15 14 16 16 15 13 11 12 13 13 12 9 7 5 6 7 7 7 7 5 5 7 6 5 6 6 8 9 10 12 13 13 12 12 14 14 9 6 8 10 9 8 4 2 2 2 0 3 4 4 6 6 6 6 7 7 6 6 6 6 6 7 8 8 9 10 11 12 14 15 15 15 15 14 13 13 13 12 12 12 13
15 15 15 14 14 14 15 15 14 12 11 12 13 13 12 9 7 7 7 7 7 6 6 6 4 5 4 3 4 5 9 11 10 12 14 15 14 13 14 15 10 7 8 11 11 9 5 2 3 3 1 2 3 5 6 6 6 6 6 7 7 7 7 8 9 10 10 11 11 12 13 14 14 13 13 12 11 11 11 11 11 11 11 11 11
14 14 13 12 14 14 15 15 14 12 12 14 14 13 11 9 8 9 9 7 5 5 6 4 3 6 4 1 3 3 5 10 11 13 15 17 15 13 14 15 12 9 7 9 11 10 7 4 4 3 3 3 3 5 5 5 6 5 6 8 8 9 10 12 12 13 13 13 12 12 12 11 11 10 10 10 10 10 10 11 11 11 11 11 12
13 13 12 11 12 13 13 14 13 12 12 13 13 12 11 9 7 8 8 6 5 4 4 3 2 4 3 1 2 1 1 7 12 14 13 17 18 13 14 16 15 12 7 7 10 10 10 8 4 3 2 1 2 4 5 5 7 7 6 8 9 11 12 13 12 12 11 10 9 9 8 8 8 9 10 10 10 10 10 10 11 11 11 12 12
13 12 11 11 11 11 11 11 12 11 11 11 12 11 9 8 6 6 5 3 4 5 3 3 4 4 2 1 0 1 2 3 4 7 5 12 19 15 17 18 16 15 10 7 10 11 11 9 4 2 2 2 2 4 5 7 7 6 7 8 11 12 11 10 9 8 7 7 6 6 6 7 9 10 11 10 10 10 10 10 10 11 11 12 13
12 11 10 10 11 11 11 11 11 11 11 10 11 11 8 7 6 4 3 2 4 6 4 2 4 5 3 5 3 1 3 2 2 1 3 7 15 16 16 15 13 14 12 10 13 13 11 9 6 3 3 4 3 2 4 6 6 6 8 9 11 10 8 8 7 7 7 6 5 5 6 8 10 12 12 11 10 9 9 9 9 10 11 13 14
11 11 10 10 11 11 11 11 11 11 10 10 10 10 9 7 5 2 2 3 4 6 7 4 3 3 3 4 3 1 3 3 2 1 2 3 10 13 14 11 10 13 13 12 14 13 13 13 8 4 3 4 4 2 4 5 4 6 9 9 9 8 7 7 7 6 6 5 5 6 8 10 11 13 13 11 10 9 9 8 9 11 13 15 16
12 11 10 10 11 12 12 11 10 10 9 9 9 9 8 8 6 4 5 6 3 4 6 4 1 2 3 2 1 1 4 3 2 3 2 1 2 6 12 12 9 11 13 13 13 13 15 15 9 6 4 3 1 2 2 4 3 7 9 7 8 8 7 7 6 6 5 5 6 7 9 11 12 13 12 10 9 8 8 8 10 12 13 15 16
12 11 11 11 11 12 12 11 10 10 9 9 10 8 8 9 8 7 8 6 4 3 5 3 1 3 1 1 1 2 3 2 1 1 1 1 1 1 8 13 10 10 14 15 14 13 14 13 10 8 5 4 4 4 2 4 5 7 8 6 7 9 8 7 6 5 5 5 7 8 10 11 12 13 11 9 8 7 8 10 11 12 13 14 16
13 11 12 12 13 13 12 11 10 10 10 10 10 9 9 10 9 9 8 7 5 4 4 2 2 3 1 0 1 2 3 2 1 2 2 1 1 3 1 7 7 6 10 15 15 12 10 8 9 9 6 6 7 4 5 6 5 7 6 5 6 7 8 7 6 4 5 6 8 9 10 12 12 11 9 7 7 8 9 11 11 11 12 14 15
14 12 12 11 12 13 12 11 11 11 10 9 10 11 11 11 10 9 8 7 6 4 3 3 1 2 1 1 3 2 2 3 4 4 2 1 1 3 6 3 4 11 10 11 13 10 7 7 10 11 8 7 4 4 7 6 6 7 6 6 6 6 7 7 6 5 6 7 8 10 11 11 10 8 7 6 7 8 10 11 11 10 11 13 15
14 13 13 11 11 13 11 10 11 11 10 9 10 12 12 12 11 10 8 8 7 6 4 4 3 2 2 2 4 4 4 6 6 6 5 3 3 3 5 6 2 8 8 9 10 9 8 10 12 11 7 4 4 5 6 6 6 6 6 7 7 6 7 8 6 5 6 7 9 10 10 10 8 6 6 6 8 9 9 10 9 9 11 13 15
16 15 14 13 11 12 12 11 11 10 9 10 11 11 11 12 11 11 11 10 9 8 7 6 5 4 5 4 6 6 7 8 8 8 8 5 4 4 2 5 5 2 4 8 8 7 8 12 12 9 7 5 6 5 5 5 5 5 7 8 8 7 7 7 6 5 6 8 9 9 9 8 6 6 6 7 8 8 8 8 8 9 11 13 14
17 16 14 14 13 12 12 10 10 10 10 9 9 10 11 12 11 10 11 10 9 9 9 8 6 5 6 6 8 7 6 8 8 6 7 5 4 3 1 4 6 5 1 5 8 7 8 13 12 10 7 5 6 6 5 5 5 5 6 9 9 8 7 7 6 5 6 8 9 8 8 7 6 6 6 7 8 8 7 7 7 9 11 13 13
16 15 13 15 15 13 13 11 11 12 12 11 10 10 11 12 11 10 10 9 8 8 8 8 6 5 7 8 9 7 6 8 11 7 1 3 4 3 4 4 4 5 5 2 5 5 8 12 11 9 6 5 5 5 5 5 5 6 7 8 9 8 7 7 6 5 5 8 9 8 8 7 6 6 6 7 8 8 7 7 7 10 12 12 13
14 14 14 16 16 14 13 12 12 12 12 11 11 11 11 12 11 11 10 9 9 9 8 8 7 6 6 7 8 8 9 8 7 5 4 4 6 5 6 5 3 2 4 4 3 1 4 9 9 6 3 3 3 3 5 6 6 8 9 8 10 9 7 7 7 5 4 6 8 8 7 7 7 6 6 7 8 8 7 7 8 10 11 12 13
14 13 13 16 17 15 13 13 12 12 12 12 11 10 11 11 11 11 10 9 9 10 9 8 7 7 7 7 8 8 9 9 5 3 4 4 3 3 4 4 3 1 1 3 3 3 2 3 5 5 4 5 4 3 4 7 8 9 9 9 10 9 8 9 9 7 5 5 6 8 7 7 7 7 6 6 7 8 7 7 8 10 12 12 12
13 13 12 13 16 15 13 13 13 12 11 11 11 10 9 10 10 10 9 9 8 8 9 9 8 7 8 8 8 8 7 7 6 5 6 5 4 3 2 2 1 1 1 0 3 3 2 3 1 2 4 5 6 7 7 7 8 9 9 10 11 9 9 11 11 10 7 6 5 7 7 7 8 8 7 7 7 8 8 8 9 10 12 12 12
14 15 14 13 15 15 13 12 14 13 11 10 11 10 10 9 9 9 8 8 8 8 8 8 8 8 8 8 7 7 5 5 6 6 8 7 6 5 5 2 1 2 1 1 1 4 5 6 6 4 4 7 8 7 7 5 6 7 9 10 10 9 11 12 13 12 10 8 6 6 7 7 8 8 8 8 7 8 9 9 9 10 12 12 12
15 16 17 17 16 16 14 13 14 14 12 12 11 11 11 11 10 9 8 8 9 10 9 8 8 7 8 8 7 6 6 7 9 7 6 6 5 4 5 5 3 3 4 2 3 7 11 10 8 8 8 8 9 6 5 6 7 7 9 9 9 10 12 14 15 14 12 10 7 6 6 7 8 8 9 9 8 8 9 10 10 11 11 12 12
17 16 18 19 19 18 17 16 15 14 14 14 13 12 12 12 12 10 9 10 10 11 10 9 10 9 9 9 9 8 8 9 11 9 7 6 6 5 5 6 6 7 8 7 7 10 14 12 10 10 9 9 10 9 9 10 8 6 8 10 11 13 14 15 16 16 13 11 9 7 6 6 7 8 9 9 9 8 8 10 11 11 11 12 12
19 18 18 19 19 18 17 18 17 16 16 15 15 15 14 13 13 12 12 12 11 11 11 10 11 11 10 9 10 10 10 10 11 11 10 8 7 8 8 9 9 9 9 10 10 11 14 15 14 13 11 10 12 11 10 9 8 8 9 11 14 14 14 14 15 15 14 12 11 10 8 6 6 7 8 9 9 8 7 9 10 11 11 11 11
20 19 19 19 19 17 17 17 17 17 18 18 16 16 16 15 14 14 14 14 13 12 12 11 11 12 11 10 10 11 11 10 11 11 11 10 10 10 11 11 13 13 12 12 14 15 16 16 15 15 14 13 13 13 12 12 12 12 12 13 14 14 13 13 13 13 14 13 12 11 9 8 7 7 8 8 8 7 6 7 9 10 11 11 11
21 22 21 21 20 19 19 19 18 18 19 20 19 17 18 17 17 16 15 15 15 15 15 14 14 14 14 13 12 12 12 12 12 12 11 12 12 13 12 12 12 14 14 14 14 15 16 16 15 15 14 14 15 16 16 17 16 15 14 14 14 14 14 14 13 13 12 12 12 12 11 10 9 9 9 8 8 7 6 6 7 9 10 11 10
22 22 23 24 23 22 22 21 21 20 20 21 21 20 19 19 18 18 16 16 17 17 17 17 16 15 15 15 14 14 14 14 14 15 14 13 13 14 15 13 12 12 13 14 13 13 13 15 16 16 15 15 16 17 17 18 19 17 14 13 14 14 14 14 14 14 12 12 12 12 13 12 11 10 11 10 10 8 7 7 7 7 9 10 10
24 23 24 25 25 24 24 23 22 22 22 22 23 22 21 20 20 19 18 18 18 18 18 17 16 16 16 16 16 16 16 16 16 16 16 15 15 15 16 15 14 14 13 14 14 15 15 15 16 16 17 16 17 19 18 17 19 19 17 17 17 16 15 15 15 15 14 14 14 14 15 14 13 12 12 13 13 12 10 8 8 6 7 9 10
25 24 24 26 27 26 25 25 25 24 24 24 24 24 23 21 21 21 21 20 19 19 19 19 18 17 17 18 18 18 18 18 19 18 17 17 17 17 17 17 16 16 16 15 15 16 16 17 18 18 19 19 19 20 18 16 17 17 18 19 19 19 18 16 15 15 16 15 15 16 16 15 15 14 14 14 15 15 13 11 9 7 6 8 9
30 27 25 26 28 29 28 27 27 27 26 26 25 25 25 24 23 23 23 23 22 22 21 21 21 20 20 20 20 20 20 20 20 20 20 19 19 19 19 19 18 18 18 19 18 17 16 17 18 19 19 20 20 19 17 15 14 16 18 19 20 21 21 19 17 17 17 16 16 18 18 18 17 17 16 15 15 17 16 14 11 9 7 7 8
30 31 29 27 27 29 30 29 29 29 30 29 28 27 27 26 26 25 25 26 25 25 24 24 23 23 22 22 22 22 23 23 22 22 21 21 21 21 21 21 21 20 20 21 21 21 19 18 18 17 17 17 18 17 16 16 17 20 22 22 22 23 23 21 19 16 15 14 15 17 18 18 19 19 17 16 16 17 18 17 14 12 10 7 7
19 25 29 29 29 29 31 31 31 31 32 32 31 31 30 30 29 28 28 27 27 27 27 26 25 25 24 24 24 23 24 24 24 24 24 24 24 24 23 22 22 22 22 22 22 22 22 22 22 21 18 18 20 20 20 21 22 22 23 23 22 22 21 19 18 16 15 15 15 16 18 18 20 20 18 17 17 19 19 19 17 15 12 9 7
12 15 20 22 23 25 29 33 33 32 33 34 33 32 32 32 32 32 31 31 29 28 29 29 29 28 27 26 26 25 25 25 25 25 25 25 26 27 26 25 25 24 23 23 24 23 23 22 23 22 21 21 24 25 24 24 23 23 24 20 15 13 13 12 13 13 14 14 15 16 18 18 19 20 19 19 19 20 21 20 18 16 15 12 9
13 13 16 18 18 17 20 28 34 34 34 34 34 33 32 32 32 33 34 34 33 32 30 30 31 30 30 29 28 27 26 25 24 24 24 25 26 28 28 28 28 28 27 26 25 25 24 23 23 23 23 24 26 26 26 25 23 22 22 19 14 13 12 12 12 13 14 15 16 18 20 20 20 20 21 22 22 22 22 20 19 18 17 15 11
15 14 16 19 20 18 16 19 27 34 35 34 34 33 32 32 32 33 34 35 35 36 35 33 33 32 32 32 31 31 30 29 27 26 26 26 26 27 28 30 31 31 30 30 29 28 27 27 26 26 27 27 27 28 29 27 24 21 21 22 22 20 18 17 18 20 21 20 17 17 20 22 19 19 22 24 24 24 23 21 20 20 19 17 13
16 16 18 21 23 23 20 18 19 26 32 34 34 35 34 32 31 32 35 36 36 36 37 36 36 35 34 34 34 34 34 33 32 32 31 30 29 28 27 29 32 33 33 33 33 32 31 31 30 31 32 31 31 32 32 29 27 26 25 26 25 24 23 22 23 24 23 22 19 16 18 23 22 21 24 26 25 25 24 22 21 21 20 18 15
16 17 19 21 22 24 25 23 19 19 23 25 27 30 33 35 34 33 34 37 38 37 37 37 37 37 36 35 35 35 35 35 35 34 33 33 33 32 30 29 30 32 34 35 35 35 35 35 35 35 35 35 35 36 36 33 31 29 28 27 26 24 23 23 23 24 24 24 22 16 16 23 26 24 26 27 24 24 24 22 21 21 21 19 16
17 18 18 19 20 21 24 25 22 21 20 20 18 18 21 26 32 36 37 38 38 38 38 37 37 37 37 36 35 35 35 35 35 34 34 34 34 33 32 32 31 31 33 34 35 36 36 36 37 36 36 36 36 37 38 38 36 34 31 28 26 24 23 23 23 25 26 27 26 21 20 24 25 24 27 26 22 21 23 22 21 21 21 20 17
15 16 17 18 19 20 21 22 22 21 21 21 20 19 17 17 20 26 33 37 39 39 39 39 38 38 37 36 35 34 33 33 32 31 31 32 33 34 33 33 32 32 34 34 34 35 36 37 37 36 35 34 33 33 35 36 38 38 34 28 26 25 23 19 19 23 26 28 27 23 21 22 22 23 25 23 19 20 21 21 22 21 21 21 20
13 13 15 16 17 18 19 19 19 19 19 20 22 26 27 25 22 21 23 28 33 37 39 40 39 39 39 38 37 36 36 35 34 33 31 30 31 33 33 32 32 32 34 34 33 34 34 34 34 34 33 31 29 29 29 30 32 35 34 33 30 26 22 19 19 21 24 29 29 22 19 22 22 22 21 18 16 18 21 21 21 22 22 22 22
12 12 12 14 15 16 16 16 15 14 17 21 25 29 31 32 31 29 26 24 28 33 37 38 38 39 39 39 39 38 38 37 36 36 34 33 33 34 34 33 32 33 34 34 32 32 32 32 32 32 32 31 30 30 30 29 28 30 33 36 34 30 26 25 25 20 16 23 29 23 18 23 25 23 21 15 9 12 18 21 22 23 24 24 24
Wind_Direction
135 138 142 146 149 147 147 147 143 141 141 145 151 158 172 175 170 176 183 182 185 173 154 155 158 163 158 146 158 172 166 133 121 135 147 150 153 154 157 158 158 155 154 155 154 155 154 158 164 168 173 172 173 169 147 135 163 212 242 259 274 286 283 285 291 292 294 297 300 302 302 306 308 306 307 307 310 312 311 310 308 306 306 309 310
138 141 145 146 144 146 151 153 153 153 151 154 165 181 181 176 178 182 176 167 172 168 150 147 147 150 151 148 159 169 163 145 122 121 136 146 153 151 155 159 158 157 156 159 161 163 170 184 198 198 199 202 210 216 220 240 245 244 256 261 270 281 279 280 285 286 286 291 297 299 301 305 305 303 304 304 305 305 304 302 298 294 295 297 298
135 138 140 142 139 143 150 153 160 164 163 165 171 180 174 169 173 170 167 165 160 157 152 150 150 149 151 154 159 163 165 159 141 132 125 128 146 149 154 161 164 166 166 171 175 184 200 216 225 224 224 226 230 230 234 246 247 251 257 261 266 267 269 275 281 283 285 291 294 297 300 303 302 300 301 302 299 297 296 296 292 288 286 288 288
143 135 134 139 140 148 159 163 167 167 167 166 164 167 162 158 163 165 166 166 156 152 154 155 155 154 155 161 164 162 166 170 169 157 120 103 129 146 156 163 169 178 186 193 196 207 221 234 239 240 239 234 239 237 235 241 245 256 260 261 265 266 273 278 282 286 286 288 289 293 298 299 297 297 297 296 294 292 290 290 289 287 284 282 283
158 164 161 156 156 168 176 173 165 163 166 164 164 164 161 156 157 164 162 160 157 149 151 156 159 158 155 163 172 170 169 175 182 175 138 110 114 128 141 148 160 176 192 202 209 215 222 236 245 247 248 243 248 248 245 246 244 252 260 263 268 271 278 279 280 283 285 289 293 298 302 302 301 300 299 297 296 295 294 293 287 285 283 280 279
166 173 169 163 165 170 170 165 157 158 162 164 167 164 161 158 155 165 164 160 157 148 148 153 162 165 162 163 168 175 177 181 188 188 169 135 102 102 120 119 118 131 155 166 188 207 210 223 231 233 240 243 248 250 251 254 250 255 264 268 273 277 281 284 285 288 292 298 302 307 311 315 316 312 310 309 307 306 304 302 296 289 286 282 281
167 166 164 161 160 158 156 155 153 155 160 163 167 162 159 161 159 168 168 156 152 152 151 150 155 156 153 155 157 164 172 178 188 195 183 158 105 98 122 126 114 109 125 121 117 137 159 173 197 213 224 237 244 247 248 255 262 269 277 280 283 286 289 292 296 302 307 311 312 313 316 319 322 320 319 317 315 314 311 309 306 300 294 288 284
168 162 158 157 156 155 154 154 156 158 159 161 165 163 160 164 163 166 164 154 156 161 158 153 149 141 141 155 158 154 154 164 180 185 175 180 197 178 178 191 198 196 170 156 125 113 113 118 113 134 157 197 233 247 250 259 272 278 284 286 288 292 297 302 305 312 316 317 317 316 317 317 317 317 317 317 315 315 312 309 308 305 299 294 290
166 162 157 154 160 163 160 160 162 160 156 155 160 161 156 157 156 159 158 147 147 148 154 155 150 148 154 158 154 157 166 169 174 175 172 205 210 196 209 216 220 240 215 202 186 133 110 113 104 100 98 84 77 49 347 330 314 309 308 302 305 304 305 308 310 315 315 315 315 313 313 312 313 313 311 311 310 308 307 305 303 301 299 296 293
160 163 159 156 161 164 163 164 162 158 157 156 159 162 157 150 147 149 149 141 145 132 138 155 161 172 170 155 153 170 180 178 173 175 180 198 207 209 212 206 207 223 214 210 205 176 123 123 121 100 83 61 55 49 46 36 17 1 349 338 328 321 317 317 315 313 311 309 308 306 307 306 306 306 305 305 304 304 303 301 300 297 296 294 292
161 164 162 163 164 162 162 163 160 158 160 159 160 164 159 148 142 137 132 136 149 128 120 139 157 169 168 156 165 180 180 185 187 194 197 193 203 213 210 206 206 210 214 218 207 192 166 160 173 117 62 26 25 30 32 26 18 11 359 351 340 330 324 321 316 311 308 304 304 302 303 304 305 307 307 307 306 305 304 303 302 301 299 298 296
166 168 166 167 167 161 161 161 161 161 161 156 155 161 159 151 148 138 135 145 146 117 106 110 113 136 150 156 178 187 192 204 204 204 206 203 203 207 210 214 212 208 223 225 209 199 174 152 177 153 59 6 358 359 2 359 358 1 357 350 340 333 328 320 313 308 304 302 303 304 307 309 311 311 311 311 310 310 311 310 310 310 308 305 303
168 170 170 171 170 163 162 163 161 159 159 153 147 152 154 155 163 157 144 143 140 121 115 133 131 132 158 186 193 201 207 214 220 216 214 214 209 203 207 213 209 202 218 223 214 210 196 155 183 183 102 355 347 337 337 335 334 345 351 349 340 333 327 318 312 308 306 307 309 312 315 316 316 316 316 317 319 322 324 326 325 325 322 317 316
169 169 170 172 170 164 162 165 163 156 153 150 147 147 147 158 171 159 135 124 128 127 137 154 160 173 191 207 203 220 219 215 228 235 229 219 206 197 200 206 208 193 199 215 214 207 203 186 199 207 275 316 330 325 321 317 317 332 345 348 341 331 324 318 315 313 312 312 313 316 319 321 322 322 326 329 334 337 338 340 339 336 333 330 329
172 170 171 172 169 164 162 163 161 155 152 151 154 150 148 164 166 145 130 124 133 143 159 181 221 199 190 245 215 221 231 225 232 240 239 230 212 195 196 200 196 182 180 202 203 201 203 202 207 226 285 294 311 317 310 303 302 313 334 342 335 325 320 317 315 313 312 312 315 321 325 327 331 334 340 344 344 343 341 341 339 337 336 335 334
176 175 173 171 169 165 162 163 161 158 159 155 153 152 152 161 156 144 144 148 170 175 183 208 195 177 177 249 211 151 258 239 231 225 230 232 224 204 195 197 191 184 178 182 190 199 200 195 213 248 263 288 326 312 304 304 302 306 323 330 326 324 324 322 323 322 321 323 327 333 336 336 344 348 348 345 341 340 338 338 338 337 337 337 337
174 177 174 168 169 170 164 164 164 164 168 159 151 154 155 154 148 151 156 160 197 195 195 207 178 174 206 266 133 65 248 259 222 210 202 212 215 202 187 191 190 189 194 199 192 191 191 190 203 225 144 90 346 309 306 309 306 312 323 326 326 329 333 335 342 349 351 354 353 350 348 350 353 352 348 343 341 340 340 339 340 339 339 340 338
173 178 176 167 166 170 164 161 162 164 166 157 153 159 156 152 152 156 154 148 196 187 164 178 197 203 260 289 294 309 273 314 77 179 67 147 179 177 177 185 187 188 191 196 191 187 200 205 189 166 120 68 14 332 316 305 299 316 325 329 334 339 349 356 3 15 17 16 10 359 354 353 351 349 347 345 344 343 343 342 342 343 341 340 338
178 177 179 172 165 165 164 162 163 164 161 158 162 163 156 157 159 175 215 195 192 179 168 174 197 211 306 309 270 21 19 25 81 112 37 111 156 167 184 190 184 188 184 182 189 196 215 213 192 182 151 81 30 332 297 282 291 342 345 343 353 1 9 14 19 26 28 22 10 358 350 346 343 344 345 344 345 345 347 348 348 347 342 338 336
184 177 178 176 168 164 163 163 167 169 166 167 170 165 165 177 179 196 208 197 176 148 158 176 209 300 336 32 135 41 39 41 75 98 101 127 153 173 194 196 187 192 189 185 192 201 211 208 199 200 175 116 38 248 257 266 297 354 2 4 11 19 21 20 25 30 27 11 355 347 340 337 335 339 341 343 351 353 356 357 351 346 341 338 336
190 184 177 176 175 170 165 165 173 177 176 176 176 177 184 188 189 198 201 192 179 147 149 163 25 358 328 85 62 345 357 1 152 87 75 151 334 338 192 197 206 205 200 199 198 197 202 206 208 201 162 142 194 200 261 300 308 332 355 10 11 21 26 20 21 20 10 350 340 338 333 332 332 335 343 352 3 5 1 358 350 346 343 338 336
192 187 180 178 177 177 174 172 179 186 185 184 188 190 189 188 191 195 191 184 182 174 168 172 56 47 43 266 275 337 355 342 252 286 310 90 339 320 222 196 194 163 181 197 195 190 191 194 199 197 171 168 187 216 290 303 313 320 345 4 354 9 22 17 14 4 352 340 334 333 328 329 331 337 350 5 10 3 356 354 351 351 346 337 336
189 187 186 183 178 180 182 179 184 191 189 191 193 185 185 195 195 184 182 192 190 178 186 200 147 98 87 220 226 264 317 302 317 304 260 44 351 294 346 347 147 122 132 169 175 175 174 163 168 175 176 179 200 276 287 285 299 311 342 360 340 352 11 12 9 356 348 339 332 331 328 331 335 344 1 7 4 356 352 354 355 354 346 338 337
190 192 193 188 182 185 187 182 183 189 189 190 188 185 194 201 194 186 191 203 198 187 196 206 192 192 223 234 239 260 278 279 302 307 276 276 254 262 359 7 111 134 144 157 163 182 183 165 164 171 185 217 271 285 273 271 281 297 337 354 338 343 2 7 6 0 353 343 334 334 334 337 342 351 1 1 357 354 353 357 360 353 344 339 338
193 199 197 192 185 186 192 187 184 189 188 188 191 197 205 199 191 197 201 200 201 201 205 204 212 243 252 269 281 282 294 291 287 284 272 263 259 261 44 38 30 78 180 180 176 185 173 170 182 195 212 252 274 261 254 261 260 284 331 346 339 338 355 5 8 7 1 352 344 344 344 346 349 352 357 357 355 357 359 3 3 353 345 342 341
198 201 199 198 197 193 196 194 189 192 190 192 200 202 200 194 194 204 201 199 204 205 207 204 217 254 253 269 289 285 300 326 336 309 266 250 265 281 79 53 28 29 354 211 199 183 159 177 201 214 218 264 281 250 242 252 243 262 318 341 336 330 344 2 10 14 9 2 357 354 352 349 347 349 354 357 358 1 6 11 7 355 348 347 348
202 205 199 202 207 201 202 204 194 194 199 201 203 198 193 190 194 201 201 202 203 204 208 207 216 251 251 265 286 281 284 339 15 26 22 117 93 46 40 51 31 10 359 297 229 211 176 184 204 217 224 268 271 227 224 247 249 258 289 325 330 320 329 348 357 6 8 9 9 2 355 351 346 347 354 359 3 6 11 15 9 359 353 353 355
203 209 205 205 209 204 203 207 198 197 205 205 198 197 194 191 194 201 203 204 203 206 214 216 225 245 251 265 281 277 279 312 5 31 38 70 78 52 39 59 74 6 347 347 329 323 166 181 198 213 239 261 237 199 212 235 254 261 271 307 325 315 310 326 338 345 350 1 11 8 359 353 345 343 349 1 9 10 13 16 9 1 358 359 0
203 210 211 209 210 206 201 205 205 206 212 208 199 204 207 203 203 202 201 205 204 205 215 221 231 242 241 251 271 275 279 295 312 344 356 0 14 29 35 44 67 106 19 331 318 352 73 153 192 216 242 249 243 242 236 239 250 255 268 301 319 311 299 306 316 322 325 338 1 8 3 356 348 343 346 359 13 16 13 15 10 3 2 4 4
203 205 210 208 205 205 202 203 210 214 216 211 202 208 220 215 210 206 203 206 209 210 216 221 227 237 241 250 266 270 279 290 288 309 324 315 308 299 291 350 337 203 127 34 291 310 11 50 35 268 268 274 270 264 258 255 248 248 273 302 311 309 299 296 300 304 309 315 339 359 1 358 351 345 346 353 9 18 17 16 12 6 6 7 6
205 202 206 208 201 202 204 206 213 215 217 218 209 208 221 221 215 219 217 210 217 224 224 226 226 232 244 259 264 252 260 279 276 299 307 282 274 272 246 241 287 248 246 62 286 291 317 350 355 324 303 314 308 275 248 254 264 266 282 297 307 309 298 291 290 291 297 300 314 342 353 358 355 351 351 352 2 15 18 17 13 7 7 8 6
208 207 208 209 204 204 206 210 215 215 213 218 219 214 219 223 220 227 230 219 224 232 232 230 229 233 244 252 257 245 240 253 259 281 298 262 246 251 235 228 239 258 270 276 251 274 296 319 324 305 301 316 322 302 265 281 294 289 286 292 305 308 298 291 288 285 288 292 295 316 338 351 356 355 354 352 357 10 17 17 15 8 6 7 6
207 212 213 210 209 209 210 212 215 217 217 218 221 222 224 226 223 224 232 236 237 236 235 230 228 239 251 248 251 253 249 253 253 262 276 260 240 238 236 242 257 263 264 263 263 278 292 302 307 304 305 314 316 307 299 297 289 283 287 290 298 303 299 293 288 282 282 286 288 297 318 336 349 354 354 352 354 5 16 17 15 11 6 6 7
209 213 217 212 210 212 214 214 214 218 223 222 220 223 227 230 228 222 226 238 243 239 239 238 231 238 250 250 248 250 252 256 253 252 257 258 251 243 242 244 247 251 252 253 256 267 280 290 298 301 300 306 307 304 308 307 296 294 295 291 293 296 297 294 289 282 278 280 284 286 297 313 328 341 345 349 353 1 13 14 12 11 6 6 7
213 213 216 212 210 214 217 217 216 219 225 225 220 220 226 230 233 229 225 230 237 237 239 243 241 241 246 251 252 247 246 250 253 254 251 250 253 254 255 250 243 244 246 248 252 255 260 271 283 290 290 293 294 293 297 298 295 293 289 289 289 284 285 291 290 283 276 278 281 279 285 299 309 319 325 335 345 348 353 2 6 7 6 8 8
218 216 216 216 216 219 220 219 219 222 226 226 221 220 225 229 234 236 231 227 231 236 239 241 243 244 244 247 250 248 247 245 248 254 253 249 252 258 269 268 255 251 249 247 255 259 258 263 272 280 283 286 290 294 297 297 297 295 287 289 291 283 282 289 287 280 275 277 278 275 278 290 297 302 306 309 320 327 326 337 355 1 2 8 8
221 219 219 221 221 222 223 223 222 223 226 227 225 222 223 228 234 240 238 231 231 238 242 243 244 245 244 246 247 246 247 247 246 249 251 251 253 259 268 272 269 265 259 256 264 269 265 265 272 278 283 289 295 297 298 297 297 297 289 285 290 288 285 287 282 273 271 273 274 274 278 285 289 292 296 295 294 302 307 316 335 350 358 6 8
222 222 220 221 223 222 223 225 225 226 228 229 230 228 226 227 232 239 242 237 235 238 242 245 247 246 245 247 249 248 247 248 248 248 248 249 252 255 260 264 268 273 273 271 272 274 271 269 273 280 285 289 292 293 297 298 295 293 288 284 284 282 281 286 282 270 266 271 276 279 281 284 284 285 290 291 287 288 292 301 314 326 346 1 5
222 225 224 222 222 223 224 224 225 228 229 231 232 232 231 230 231 236 240 240 239 239 240 242 245 247 247 248 251 251 250 250 250 250 250 250 252 254 255 257 259 264 270 272 269 270 271 271 271 274 277 281 283 287 295 299 295 290 285 281 279 279 283 287 282 270 263 264 272 278 279 277 275 274 278 283 284 283 282 286 296 302 323 351 359
218 222 226 224 222 222 223 225 226 228 229 230 232 233 234 233 232 234 238 239 240 241 241 241 242 243 247 249 251 251 251 251 251 250 250 249 249 251 253 254 253 254 259 264 265 265 266 267 266 266 269 273 275 279 284 285 285 286 284 281 278 282 287 287 282 274 266 264 270 274 273 271 270 269 270 273 278 280 278 277 282 284 293 327 350
217 218 221 224 223 221 222 225 227 228 228 229 231 233 235 236 234 235 237 239 240 241 242 243 244 244 246 248 250 252 253 253 253 251 250 248 246 246 247 248 248 248 251 257 260 259 257 259 263 266 268 269 269 271 273 274 280 285 287 285 281 281 283 281 278 271 267 275 280 275 274 274 271 269 269 272 277 278 276 275 275 275 276 295 332
222 218 218 221 222 221 220 222 225 226 226 228 230 232 234 237 238 236 237 239 241 240 240 242 243 245 246 247 248 251 254 257 257 255 253 251 248 247 245 244 244 244 245 249 253 254 252 253 256 260 263 265 268 270 272 276 280 282 285 286 284 282 280 275 272 268 269 279 281 279 284 283 275 268 265 271 279 279 276 276 274 270 266 273 305
228 225 223 224 227 227 222 220 222 225 225 226 229 232 233 236 238 238 238 240 242 243 242 240 242 244 246 247 248 249 252 255 257 259 260 258 255 252 249 245 244 244 243 244 247 250 250 250 252 254 255 259 265 268 270 273 274 276 279 281 281 282 277 270 270 270 269 274 277 281 288 288 281 274 270 275 281 281 280 280 274 266 261 262 282
236 235 233 233 239 244 237 226 221 222 226 227 228 232 234 235 237 239 240 241 242 244 244 243 243 244 245 246 248 250 251 253 256 260 263 263 260 257 254 249 245 244 244 244 246 247 247 248 249 251 252 256 261 264 266 267 268 271 274 272 273 277 274 265 264 270 281 289 288 283 284 285 281 276 275 280 283 283 284 282 272 262 257 256 265
249 250 241 235 238 248 259 250 232 225 226 229 230 231 233 235 237 239 240 241 242 243 244 244 245 246 246 247 248 249 251 253 256 260 263 265 266 263 259 253 248 245 245 246 248 249 250 250 249 251 255 257 258 261 264 264 263 264 267 269 274 276 274 272 274 281 292 296 290 281 280 281 279 271 273 281 284 282 283 280 270 260 255 252 254
263 258 244 233 233 238 250 265 257 237 230 230 233 233 234 235 237 238 239 240 241 242 243 244 245 246 247 248 249 251 252 253 255 257 260 263 267 269 266 259 252 249 247 247 248 249 250 251 250 253 257 258 258 262 266 265 261 261 263 267 270 271 272 276 280 285 290 288 283 278 276 280 283 278 276 281 281 278 279 279 270 259 251 248 248
269 263 251 240 237 239 243 252 265 261 244 235 235 237 238 239 239 239 239 239 239 241 243 244 245 246 248 249 251 253 255 256 256 256 257 259 261 265 267 266 262 257 253 251 250 251 251 252 253 255 259 261 261 263 265 264 261 261 263 265 269 273 276 279 281 282 282 280 278 270 267 279 285 283 282 285 282 275 274 274 268 257 248 245 244
266 265 264 259 253 251 250 251 259 267 260 248 243 247 250 248 244 242 241 239 238 239 241 243 244 245 247 249 251 253 254 255 256 256 257 257 257 258 260 263 264 263 260 259 258 257 256 256 257 259 262 266 267 268 268 266 262 261 263 266 269 273 276 277 276 276 276 276 275 268 264 275 283 283 284 286 278 269 267 267 263 254 244 239 238
276 268 267 266 260 256 254 252 255 264 268 261 254 258 267 269 262 254 247 243 240 240 241 243 244 245 246 246 248 251 253 254 255 256 256 255 254 254 254 257 260 261 262 263 262 261 260 260 260 262 266 270 273 273 273 271 267 264 261 262 267 270 271 271 268 270 273 275 278 274 264 265 276 282 285 284 274 262 260 261 258 250 239 234 232
289 283 277 273 268 262 258 254 254 264 273 268 255 249 252 257 263 267 262 254 248 246 244 243 243 244 245 246 247 249 252 255 257 258 258 255 253 252 252 253 254 255 258 260 260 259 259 260 261 263 266 269 270 271 272 272 271 266 259 257 261 264 264 264 264 269 275 275 276 273 259 259 271 278 281 282 270 256 251 252 252 245 235 229 228
289 290 288 281 276 272 267 263 262 267 270 265 256 249 247 248 250 255 260 259 255 251 249 247 245 244 245 246 247 248 251 254 256 257 258 257 255 253 252 251 250 251 254 257 256 256 256 257 259 261 263 266 269 270 271 270 270 267 262 259 259 256 256 259 262 266 273 274 274 270 259 263 272 274 272 270 262 253 249 244 243 242 235 229 229